Regional Weather Roundup
Issued by NWS Grand Forks, ND

Home | Current Version | Previous Version | Text Only | Print | Product List | Glossary Off
Versions: 1 2 3 4 5 6 7 8 9 10 11 12 13 14 15 16 17 18 19 20 21 22 23 24 25 26 27 28 29 30 31 32 33 34 35 36 37 38 39 40 41 42 43 44 45 46 47 48 49 50

000
ASUS43 KFGF 181710
RWRFGF
PRAIRIE TO PINES  WEATHER ROUNDUP
NATIONAL WEATHER SERVICE EASTERN NORTH DAKOTA/GRAND FORKS ND
1200 PM CDT MON SEP 18 2017

 **SATELLITE DATA USED TO AUGMENT SKY COVER AT AUTOMATED STATIONS**
 *****  WEATHER ACROSS EASTERN NORTH DAKOTA  *****

CITY           SKY/WX    TMP DP  RH WIND       PRES   REMARKS
GRAND FORKS    PTSUNNY   60  52  74 SE8       29.90F
GRAND FRKS AFB NOT AVBL
DEVILS LAKE    FAIR      60  49  66 SE10      29.88F
FARGO          FAIR      69  52  54 S14G21    29.90S
WAHPETON ARPT  FAIR      68  52  56 S20       29.91S
$$

 ***** WEATHER ACROSS CENTRAL AND WESTERN NORTH DAKOTA  *****

CITY           SKY/WX    TMP DP  RH WIND       PRES   REMARKS
BISMARCK       FAIR      61  52  72 CALM      29.87S
MINOT          FAIR      64  49  57 CALM      29.84S
JAMESTOWN      PTSUNNY   63  52  67 S7        29.86F
MINOT AFB      NOT AVBL
GARRISON         N/A     61  52  72 SE3       29.85S
WILLISTON        N/A     61  48  62 S9        29.80F
DICKINSON      FAIR      69  39  33 SE8       29.83S
HETTINGER      FAIR      69  35  28 VRB3      29.86F
$$

 *****  OTHER AIRPORT OBSERVATIONS IN OUR AREA  *****

CITY           SKY/WX    TMP DP  RH WIND       PRES   REMARKS
WALHALLA       FAIR     N/A N/A N/A E9        29.91F
GRAFTON AIRPOR NOT AVBL
VALLEY CITY AR NOT AVBL
CANDO          FAIR      63  52  67 SE9       29.89F
CAVALIER APRT  FAIR      57  50  77 S6        29.92S
GWINNER        PTSUNNY   64  55  72 E3G12     29.88F
SHEYENNE NWR     N/A     67  55  65 S10       29.95S
ROLLA          FAIR      61  48  63 S12       29.88F
 ***** THE ABOVE OBSERVATIONS ARE NON NWS ARE NOT QUALITY
       CONTROLLED AND MAY MIS-REPORT RAIN FOR SNOW...
$$

  *****  WEATHER ACROSS NORTHERN MINNESOTA  *****

CITY           SKY/WX    TMP DP  RH WIND       PRES   REMARKS
FLAG ISLAND    FAIR      61  48  63 S9        29.98F
WARROAD        FAIR      63  52  67 SE9       29.97F
ROSEAU         FAIR      63  52  67 S9        29.96F
HALLOCK        FAIR      64  50  59 S9        29.92F
THF RVR FALLS  CLOUDY    63  48  58 SE8       29.95F
BAUDETTE       PTSUNNY   62  48  60 S9        29.99F
WASKISH        CLOUDY    63  48  59 SE9       29.99F
CROOKSTON      FAIR      64  48  55 SE13      29.92F
STEPHEN NDAWN    N/A     64  48  55 SE12        N/A
GREENBUSH NDAW   N/A     63  48  59 SE6         N/A
$$
  *****  WEATHER ACROSS CENTRAL AND WEST MINNESOTA  *****

CITY           SKY/WX    TMP DP  RH WIND       PRES   REMARKS
FOSSTON        FAIR      59  52  77 SE8       29.95F
BEMIDJI        LGT RAIN  57  50  77 SE10      29.99F
PARK RAPIDS    PTSUNNY   62  50  64 S16       29.98F
ELBOW LAKE     CLOUDY    57  54  90 SE17G24   29.95F
WADENA         CLOUDY    61  52  72 SE15      29.98F
DETROIT LAKES  FAIR      61  52  72 SE14      29.95F
MOORHEAD       FAIR      66  50  55 S15G21    29.91S
FERGUS FALLS   FAIR      64  55  72 S20       29.93F
MORRIS MN      CLOUDY    57  54  88 SE18G24   29.94F
STAPLES        CLOUDY    61  48  63 S14       30.00F
$$
  *****  WEATHER ELSEWHERE ACROSS MINNESOTA  *****

CITY           SKY/WX    TMP DP  RH WIND       PRES   REMARKS
DULUTH         PTSUNNY   55  48  77 S9        30.09S
INTRNTL FALLS  CLOUDY    62  47  57 VRB7      30.02F
ELY            PTSUNNY   55  45  67 S9        30.08S
CLOQUET        FAIR      55  46  71 SE7       30.09F
WHEATON        FAIR      66  55  68 SE16      29.92F
BRAINERD       PTSUNNY   62  49  62 S15G24    30.03F
HIBBING        FAIR      59  47  64 S13G18    30.06F
ALEXANDRIA     CLOUDY    57  52  83 SE18      29.99F
SAINT CLOUD    CLOUDY    56  54  93 SE15      30.04F
MINNEAPOLIS    LGT RAIN  56  54  93 SE14      30.06F
$$

  *****  WEATHER ACROSS SOUTH DAKOTA  *****

CITY           SKY/WX    TMP DP  RH WIND       PRES   REMARKS
SIOUX FALLS    CLOUDY    62  61  96 S6        29.94F FOG
BROOKINGS      CLOUDY    62  58  86 S9        29.93
WATERTOWN      PTSUNNY   66  59  78 S10       29.89F
HURON          FAIR      70  57  63 S12       29.88F
SISSETON         N/A     68  57  68 SE9       29.88F
ABERDEEN       FAIR      68  55  63 SW7       29.88F
MITCHELL       FAIR      72  58  61 S7        29.89F
PIERRE         FAIR      67  51  56 CALM      29.86F
MOBRIDGE       FAIR      66  53  63 SW3       29.84F
RAPID CITY     SUNNY     66  46  48 SE8       29.90F
$$

  *****  SOME WEATHER IN NEARBY STATES *****

CITY           SKY/WX    TMP DP  RH WIND       PRES   REMARKS
GLASGOW MT       N/A     57  46  66 SE15      29.71F
GREAT FALLS MT PTSUNNY   57  35  43 SW8       29.70S
CHEYENNE WY    FAIR      71  30  21 SW8       30.08F
SCOTTSBLUFF NE FAIR      68  47  46 SW5       29.98F
OMAHA NE       CLOUDY    68  63  84 S15       29.99R
DES MOINES IA  CLOUDY    67  61  81 E5        30.01F THUNDER
DAVENPORT IA   FAIR      72  57  59 SE9       30.09F
CHICAGO IL     FAIR      74  51  44 E6        30.10F
EAU CLAIRE WI  LGT RAIN  57  51  80 SW3       30.12R
LA CROSSE WI   FAIR      69  48  47 SE6       30.08F
$$

  *****  SOME NATIONAL WEATHER *****

CITY           SKY/WX    TMP DP  RH WIND       PRES   REMARKS
LA GUARDIA NY  CLOUDY    72  67  84 NE13      30.11F
RALEIGH NC     FAIR      79  65  62 NE12      30.05S
ATLANTA GA     FAIR      84  62  47 NW5       30.08F
NEW ORLEANS LA PTSUNNY   87  75  67 NE8       30.05S HX  96
OKLAHOMA CITY  FAIR      73  64  73 S9        30.00R
ALBUQUERQUE NM FAIR      73  41  31 W5        30.21S
SALT LAKE CITY PTSUNNY   75  37  25 S16G28    29.93F
LOS ANGELES CA PTSUNNY   68  61  78 SW7       29.97R
BOISE ID       PTSUNNY   63  51  65 CALM      29.81F
SEATTLE WA     FAIR      54  49  83 S10       29.78S
$$

*** WEATHER ACROSS MANITOBA...SASKATCHEWAN AND ONTARIO ***
                ***ONTARIO***

CITY           SKY/WX    TMP DP  RH WIND       PRES   REMARKS
GERALDTON      MOSUNNY   61  43  51 SW13G24   30.07F
THUNDER BAY    PTSUNNY   61  46  59 S7        30.11F
SIOUX LOOKOUT  MOSUNNY   63  45  51 W10G18    30.01F
TORONTO        PTSUNNY   75  64  69 SE8       30.07S
BIG TROUT LK   LGT RAIN  43  37  81 W16G25    29.84R
PICKLE LAKE    PTSUNNY   52  41  66 W18G26    29.96S
DRYDEN         SUNNY     61  45  55 S12G17    30.01F
KENORA         MOSUNNY   59  46  63 SW13G18   29.99F
$$
                *** MANITOBA***

CITY           SKY/WX    TMP DP  RH WIND       PRES   REMARKS
BRANDON        MOSUNNY   57  46  67 NE9       29.89F
DAUPHIN        SUNNY     55  45  67 SE15G21   29.90F
ISLAND LAKE    NOT AVBL
PILOT MOUND      N/A     63  46  55 S9          N/A
THE PAS        MOSUNNY   54  41  62 SE7       29.90F
THOMPSON       PTSUNNY   50  30  46 VRB3      29.90R
WINNIPEG       MOSUNNY   61  45  55 VRB6      29.94F
LYNN LAKE      SUNNY     54  41  62 E5        29.88S
CHURCHILL      PTSUNNY   45  36  70 N9        29.91S
GILLAM         CLOUDY    45  39  81 N12       29.89R
$$
                ***SASKATCHEWAN***

CITY           SKY/WX    TMP DP  RH WIND       PRES   REMARKS
ESTEVAN        MOSUNNY   68  45  42 SE12G18   29.79F
KINDERSLEY     MOSUNNY   54  37  54 SE9       29.62F
LLOYDMINSTER   PTSUNNY   50  39  66 E18G26    29.63F
PRINCE ALBERT  MOSUNNY   52  34  50 E17       29.81F
REGINA         MOSUNNY   59  41  51 E13G20    29.73F
YORKTON        SUNNY     57  45  62 SE14      29.83S
N. BATTLEFORD  SUNNY     54  39  58 E22       29.69F
LA RONGE       MOSUNNY   54  37  54 SE5       29.85F
SASKATOON      MOSUNNY   55  39  54 SE16      29.71F
SWIFT CURRENT  SUNNY     64  34  32 SW9       29.65F
$$
NOTE: THESE ARE AUTOMATED STATIONS WITH LIMITED QUALITY CONTROL
      "FAIR" INDICATES FEW OR NO CLOUDS BELOW 12,000 FEET WITH NO
      SIGNIFICANT WEATHER AND/OR OBSTRUCTIONS TO VISIBILITY.
      SKY/WX - SKY CONDITION AND SIGNIFICANT WEATHER.
      TMP - AIR TEMPERATURE.    DP   - DEWPOINT TEMPERATURE.
      RH  - RELATIVE HUMIDITY.  PRES - PRESSURE.
      HX  - HEAT INDEX.         WCI  - WIND CHILL INDEX.
$




USA.gov is the U.S. government's official web portal to all federal, state and local government web resources and services.